EW5037 Weather Reports


Display with metric or nautical units.
time (UTC)temp
F
wind
direction
speed
MPH
gust
MPH
rain 1hr
in
rain 24hr
in
rain mn
in
humidity
%
barometer
mb
20260507214805 74 338 6.0 7.0 0.00 0.00 0.00 82 1013.8
20260507214200 74 45 5.0 8.0 0.00 0.00 0.00 83 1014.2
20260507212631 74 338 6.0 8.0 0.00 0.00 0.00 83 1014.2
20260507211546 74 293 6.0 9.0 0.00 0.00 0.00 83 1014.2
20260507210941 74 23 5.0 10.0 0.00 0.00 0.00 83 1014.2
20260507205419 74 338 7.0 9.0 0.00 0.00 0.00 83 1014.3
20260507204326 75 338 7.0 10.0 0.00 0.00 0.00 83 1014.3
20260507203241 75 338 7.0 10.0 0.00 0.00 0.00 83 1014.1
20260507202154 75 338 6.0 8.0 0.00 0.00 0.00 83 1014.1
20260507201547 75 315 6.0 9.0 0.00 0.00 0.00 84 1014.2
20260507200026 75 23 6.0 9.0 0.00 0.00 0.00 84 1014.2
20260507194941 76 315 6.0 9.0 0.00 0.00 0.00 84 1014.2
20260507193850 76 338 4.0 6.0 0.00 0.00 0.00 84 1014.2
20260507192806 76 68 4.0 6.0 0.00 0.00 0.00 84 1014.2
20260507191720 76 23 4.0 6.0 0.00 0.00 0.00 84 1014.4
20260507190631 76 68 4.0 5.0 0.00 0.00 0.00 84 1014.4
20260507185547 76 23 5.0 5.0 0.00 0.00 0.00 84 1014.8
20260507184507 76 338 6.0 8.0 0.00 0.00 0.00 84 1014.8
20260507183420 76 315 5.0 7.0 0.00 0.00 0.00 85 1015.0
20260507182330 76 315 5.0 9.0 0.00 0.00 0.00 85 1015.0
20260507181244 76 23 4.0 6.0 0.00 0.00 0.00 85 1015.1
20260507180157 76 23 4.0 5.0 0.00 0.00 0.00 85 1015.1
20260507175111 76 338 4.0 6.0 0.00 0.00 0.00 85 1015.1
20260507174037 76 338 4.0 6.0 0.00 0.00 0.00 85 1015.2
20260507172940 76 293 3.0 4.0 0.00 0.00 0.00 85 1015.2
20260507171855 76 23 3.0 4.0 0.00 0.00 0.00 85 1014.7
20260507170809 76 293 4.0 7.0 0.00 0.00 0.00 86 1014.7
20260507165727 76 315 5.0 6.0 0.00 0.00 0.00 86 1015.4
20260507164637 76 315 5.0 7.0 0.00 0.00 0.00 86 1015.4
20260507163556 76 293 5.0 7.0 0.00 0.00 0.00 86 1015.2
20260507162505 76 338 4.0 7.0 0.00 0.00 0.00 86 1015.2
20260507161423 75 315 4.0 7.0 0.00 0.00 0.00 86 1015.6
20260507160336 75 315 5.0 7.0 0.00 0.00 0.00 86 1015.6
20260507155250 75 315 5.0 9.0 0.00 0.00 0.00 86 1015.7
20260507154641 75 315 4.0 7.0 0.00 0.00 0.00 86 1015.7
20260507153126 75 338 6.0 9.0 0.00 0.00 0.00 86 1015.2
20260507152034 76 315 6.0 7.0 0.00 0.00 0.00 86 1015.0
20260507150948 77 315 3.0 10.0 0.00 0.00 0.00 86 1015.0
20260507145902 78 158 2.0 6.0 0.00 0.00 0.00 86 1014.9
20260507144818 77 248 3.0 5.0 0.00 0.00 0.00 86 1014.9
20260507143729 77 203 4.0 7.0 0.00 0.00 0.00 86 1015.1
20260507142649 77 180 3.0 5.0 0.00 0.00 0.00 86 1015.1
20260507142029 77 225 3.0 7.0 0.00 0.00 0.00 86 1015.5
20260507140511 77 225 2.0 4.0 0.00 0.00 0.00 86 1015.5
20260507135906 77 158 4.0 10.0 0.00 0.00 0.00 86 1015.2
20260507134341 77 225 4.0 5.0 0.00 0.00 0.00 86 1015.2
20260507133252 77 225 4.0 6.0 0.00 0.00 0.00 86 1014.8
20260507132211 77 203 3.0 5.0 0.00 0.00 0.00 87 1014.8
20260507131122 77 180 3.0 4.0 0.00 0.00 0.00 87 1014.8
20260507130035 77 158 4.0 7.0 0.00 0.00 0.00 86 1014.4
20260507124948 77 180 4.0 6.0 0.00 0.00 0.00 86 1014.4
20260507124347 77 180 4.0 7.0 0.00 0.00 0.00 86 1014.2
20260507122820 77 180 6.0 8.0 0.00 0.00 0.00 86 1014.2
20260507121737 77 113 4.0 8.0 0.00 0.00 0.00 86 1014.2
20260507120647 77 180 4.0 7.0 0.00 0.00 0.00 86 1014.2
20260507115600 77 180 4.0 6.0 0.00 0.00 0.00 86 1014.3
20260507114515 77 180 3.0 6.0 0.00 0.00 0.00 86 1014.3
20260507113429 77 203 4.0 5.0 0.00 0.00 0.00 85 1013.7
20260507112825 77 180 4.0 5.0 0.00 0.00 0.00 85 1013.7
20260507111316 77 180 4.0 7.0 0.00 0.00 0.00 85 1013.3
20260507110211 77 203 4.0 7.0 0.00 0.00 0.00 85 1013.3
20260507105609 77 158 4.0 6.0 0.00 0.00 0.00 85 1013.5
20260507104040 77 225 5.0 8.0 0.00 0.00 0.00 85 1012.9
20260507102954 77 203 4.0 7.0 0.00 0.00 0.00 85 1012.9
20260507102340 77 225 4.0 7.0 0.00 0.00 0.00 85 1012.7
20260507100826 77 180 5.0 8.0 0.00 0.00 0.00 84 1012.7
20260507095735 77 225 4.0 7.0 0.00 0.00 0.00 84 1012.7
20260507094649 77 180 4.0 8.0 0.00 0.00 0.00 84 1012.7
20260507093604 77 180 4.0 6.0 0.00 0.00 0.00 84 1012.9
20260507092519 77 180 4.0 6.0 0.00 0.00 0.00 84 1012.9
20260507091915 77 180 4.0 8.0 0.00 0.00 0.00 84 1012.8
20260507090347 77 180 4.0 6.0 0.00 0.00 0.00 84 1012.8
20260507085259 77 23 6.0 8.0 0.00 0.00 0.00 84 1012.4
20260507084212 78 225 6.0 14.0 0.00 0.00 0.00 84 1012.4
20260507083125 78 180 7.0 11.0 0.00 0.00 0.00 84 1013.4
20260507082040 78 225 6.0 10.0 0.00 0.00 0.00 84 1013.1
20260507080955 78 180 6.0 10.0 0.00 0.00 0.00 84 1013.1
20260507075917 78 203 7.0 15.0 0.00 0.00 0.00 84 1013.4
20260507075300 78 0 6.0 11.0 0.00 0.00 0.00 84 1013.4
20260507073737 78 158 6.0 14.0 0.00 0.00 0.00 84 1012.9
20260507073132 78 180 7.0 13.0 0.00 0.00 0.00 84 1012.9
20260507071606 78 180 6.0 17.0 0.00 0.00 0.00 84 1012.8
20260507070520 78 180 5.0 8.0 0.00 0.00 0.00 84 1012.8
20260507065437 78 225 7.0 15.0 0.00 0.00 0.00 84 1013.1
20260507064347 78 203 7.0 12.0 0.00 0.00 0.00 84 1013.1
20260507063304 78 180 8.0 14.0 0.00 0.00 0.00 84 1013.2
20260507062220 78 225 6.0 9.0 0.00 0.00 0.00 85 1013.2
20260507061132 78 203 5.0 9.0 0.00 0.00 0.00 85 1013.4
20260507060046 78 180 6.0 13.0 0.00 0.00 0.00 85 1013.1
20260507055006 78 158 6.0 12.0 0.00 0.00 0.00 85 1013.1
20260507053917 78 158 7.0 15.0 0.00 0.00 0.00 85 1012.7
20260507052829 78 158 6.0 12.0 0.00 0.00 0.00 84 1012.7
20260507051744 78 158 6.0 7.0 0.00 0.00 0.00 84 1013.0
20260507050657 78 158 6.0 11.0 0.00 0.00 0.00 84 1013.0
20260507045612 78 203 6.0 11.0 0.00 0.00 0.00 84 1012.8
20260507044530 78 225 8.0 14.0 0.00 0.00 0.00 84 1012.8
20260507043440 78 158 9.0 14.0 0.00 0.00 0.00 84 1012.9
20260507042352 78 158 8.0 10.0 0.00 0.00 0.00 84 1012.9
20260507041305 78 158 7.0 12.0 0.00 0.00 0.00 84 1013.2
20260507040220 79 135 7.0 12.0 0.00 0.00 0.00 83 1013.2
20260507035134 79 203 5.0 9.0 0.00 0.00 0.00 83 1013.1
20260507034055 79 158 7.0 9.0 0.00 0.00 0.00 83 1013.4
20260507033002 79 180 7.0 12.0 0.00 0.00 0.00 83 1013.4
20260507032844 79 180 5.0 9.0 0.00 0.00 0.00 82 1013.1
20260507030830 79 180 6.0 11.0 0.00 0.00 0.00 82 1013.1
20260507025745 79 180 6.0 13.0 0.00 0.00 0.00 82 1013.1
20260507024658 79 180 5.0 9.0 0.00 0.00 0.00 81 1013.1
20260507023616 79 135 5.0 9.0 0.00 0.00 0.00 81 1013.2
20260507022527 79 180 6.0 9.0 0.00 0.00 0.00 81 1013.2
20260507021440 79 158 6.0 15.0 0.00 0.00 0.00 81 1012.2
20260507020354 79 158 6.0 9.0 0.00 0.00 0.00 81 1012.2
20260507015308 79 180 7.0 17.0 0.00 0.00 0.00 81 1012.5
20260507014221 79 135 6.0 9.0 0.00 0.00 0.00 81 1012.5
20260507013141 79 158 6.0 9.0 0.00 0.00 0.00 81 1012.0
20260507012051 79 158 6.0 12.0 0.00 0.00 0.00 81 1011.2
20260507011929 79 113 5.0 11.0 0.00 0.00 0.00 81 1011.2
20260507005919 79 180 6.0 16.0 0.00 0.00 0.00 81 1012.1
20260507004831 79 135 7.0 11.0 0.00 0.00 0.00 81 1012.1
20260507004221 79 180 8.0 11.0 0.00 0.00 0.00 81 1012.1
20260507002706 80 158 8.0 10.0 0.00 0.00 0.00 80 1012.1
20260507001622 80 158 7.0 11.0 0.00 0.00 0.00 80 1012.0
20260507000527 80 158 7.0 12.0 0.00 0.00 0.00 80 1012.0
20260506235438 80 113 9.0 12.0 0.00 0.00 0.00 80 1011.6
20260506234353 80 158 8.0 10.0 0.00 0.00 0.00 80 1011.6
20260506233308 80 135 8.0 12.0 0.00 0.00 0.00 80 1011.3
20260506232228 81 135 8.0 14.0 0.00 0.00 0.00 79 1011.3
20260506231136 81 135 8.0 13.0 0.00 0.00 0.00 79 1011.2
20260506230051 81 135 9.0 12.0 0.00 0.00 0.00 79 1011.4
20260506225448 81 135 8.0 19.0 0.00 0.00 0.00 79 1011.4
20260506223922 81 135 8.0 13.0 0.00 0.00 0.00 78 1011.9
20260506222836 81 135 9.0 13.0 0.00 0.00 0.00 78 1011.9
20260506221755 82 135 8.0 16.0 0.00 0.00 0.00 77 1012.1
20260506220704 82 135 9.0 15.0 0.00 0.00 0.00 77 1012.1
20260506215618 82 225 9.0 22.0 0.00 0.00 0.00 77 1012.4